Torna al catalogo

STARLINK-34776

AttivoComunicazioniVLEO
NORAD 65037·PAYLOAD·🇺🇸 United States

Lanciato Jul 30, 2025 da Cape Canaveral Space Force Station

Loading…

Prossimi Passaggi (prossime 24 ore)

TLE

AggiornatoSource: CelesTrak SupGP

Epoca: Sep 15, 2026, 02:19 UTC

1 65037C 25161Y   26258.09701389  .00052012  00000+0  15367-2 0  2587
2 65037  53.1564 133.2406 0001250  84.1829 348.5414 15.34363836    18

Traccia STARLINK-34776 in tempo reale con AllMySat

Download on the App Store